| time (UTC) | temp F | wind direction | speed MPH | gust MPH | rain 1hr in | rain 24hr in | rain mn in | humidity % | barometer mb |
| 20260502170236 | 62 | 6 | 0.0 | 0.0 | 0.00 | 0.00 | 0.00 | 46 | 1007.0 |
| 20260502163235 | 61 | 6 | 0.0 | 0.0 | 0.00 | 0.00 | 0.00 | 44 | 1007.0 |
| 20260502160234 | 61 | 3 | 0.0 | 0.0 | 0.00 | 0.00 | 0.00 | 43 | 1007.0 |
| 20260502150232 | 64 | 6 | 0.0 | 0.0 | 0.00 | 0.00 | 0.00 | 37 | 1007.0 |
| 20260502130228 | 67 | 6 | 0.0 | 0.0 | 0.00 | 0.00 | 0.00 | 37 | 1008.0 |
| 20260502123227 | 68 | 6 | 0.0 | 0.0 | 0.00 | 0.00 | 0.00 | 34 | 1008.0 |
| 20260502120226 | 69 | 6 | 0.0 | 0.0 | 0.00 | 0.00 | 0.00 | 31 | 1007.0 |
| 20260502113225 | 71 | 7 | 0.0 | 0.0 | 0.00 | 0.00 | 0.00 | 28 | 1006.0 |
| 20260502110224 | 71 | 6 | 0.0 | 0.0 | 0.00 | 0.00 | 0.00 | 26 | 1005.0 |
| 20260502103223 | 72 | 6 | 0.0 | 0.0 | 0.00 | 0.00 | 0.00 | 26 | 1006.0 |
| 20260502100222 | 73 | 6 | 0.0 | 0.0 | 0.00 | 0.00 | 0.00 | 25 | 1005.0 |
| 20260502090220 | 73 | 10 | 0.0 | 0.0 | 0.00 | 0.00 | 0.00 | 25 | 1005.0 |
| 20260502070216 | 78 | 63 | 0.0 | 0.0 | 0.00 | 0.00 | 0.00 | 28 | 1003.0 |
| 20260502063215 | 79 | 105 | 0.0 | 3.0 | 0.00 | 0.00 | 0.00 | 21 | 1004.0 |
| 20260502060214 | 79 | 153 | 3.0 | 4.0 | 0.00 | 0.00 | 0.00 | 22 | 1005.0 |
| 20260502053213 | 80 | 86 | 0.0 | 2.0 | 0.00 | 0.00 | 0.00 | 22 | 1001.0 |
| 20260502050212 | 79 | 139 | 0.0 | 3.0 | 0.00 | 0.00 | 0.00 | 22 | 1001.0 |
| 20260502043211 | 80 | 224 | 1.0 | 3.0 | 0.00 | 0.00 | 0.00 | 22 | 1003.0 |
| 20260502040210 | 80 | 325 | 0.0 | 3.0 | 0.00 | 0.00 | 0.00 | 23 | 1003.0 |
| 20260502033209 | 81 | 359 | 0.0 | 2.0 | 0.00 | 0.00 | 0.00 | 22 | 1003.0 |
| 20260502030208 | 80 | 11 | 0.0 | 2.0 | 0.00 | 0.00 | 0.00 | 24 | 1002.0 |
| 20260502023207 | 79 | 215 | 3.0 | 5.0 | 0.00 | 0.00 | 0.00 | 24 | 1000.0 |
| 20260502020206 | 78 | 298 | 1.0 | 3.0 | 0.00 | 0.00 | 0.00 | 24 | 1001.0 |
| 20260502013205 | 79 | 125 | 0.0 | 1.0 | 0.00 | 0.00 | 0.00 | 30 | 1000.0 |
| 20260502010204 | 75 | 207 | 4.0 | 4.0 | 0.00 | 0.00 | 0.00 | 36 | 1000.0 |
| 20260502003203 | 73 | 10 | 2.0 | 3.0 | 0.00 | 0.00 | 0.00 | 35 | 1001.0 |
| 20260502000203 | 75 | 322 | 0.0 | 2.0 | 0.00 | 0.00 | 0.00 | 28 | 1000.0 |
| 20260501233201 | 73 | 30 | 0.0 | 2.0 | 0.00 | 0.00 | 0.00 | 32 | 1000.0 |
| 20260501230200 | 70 | 24 | 0.0 | 1.0 | 0.00 | 0.00 | 0.00 | 34 | 999.0 |
| 20260501223159 | 67 | 56 | 0.0 | 0.0 | 0.00 | 0.00 | 0.00 | 37 | 998.0 |
| 20260501220158 | 65 | 62 | 0.0 | 0.0 | 0.00 | 0.00 | 0.00 | 42 | 998.0 |
| 20260501213157 | 63 | 215 | 0.0 | 3.0 | 0.00 | 0.00 | 0.00 | 43 | 996.0 |
| 20260501210156 | 61 | 252 | 0.0 | 2.0 | 0.00 | 0.00 | 0.00 | 49 | 995.0 |
| 20260501203155 | 59 | 68 | 0.0 | 3.0 | 0.00 | 0.00 | 0.00 | 52 | 996.0 |
| 20260501200154 | 58 | 269 | 0.0 | 1.0 | 0.00 | 0.00 | 0.00 | 54 | 996.0 |
| 20260501193153 | 57 | 108 | 0.0 | 3.0 | 0.00 | 0.00 | 0.00 | 56 | 993.0 |
| 20260501190152 | 56 | 10 | 1.0 | 1.0 | 0.00 | 0.00 | 0.00 | 60 | 993.0 |
| 20260501183151 | 56 | 276 | 0.0 | 1.0 | 0.00 | 0.00 | 0.00 | 60 | 993.0 |
| 20260501180150 | 56 | 11 | 0.0 | 0.0 | 0.00 | 0.00 | 0.00 | 60 | 991.0 |
| 20260501173149 | 57 | 48 | 0.0 | 2.0 | 0.00 | 0.00 | 0.00 | 60 | 991.0 |